Regional Weather Roundup
Issued by NWS

Home | Current Version | Previous Version | Text Only | Print | Product List | Glossary On
Versions: 1 2 3 4 5 6 7 8 9 10 11 12 13 14 15 16 17 18 19 20 21 22 23 24 25 26 27 28 29 30 31 32 33 34 35 36 37 38 39 40 41 42 43 44 45 46 47 48 49 50
778
ASUS44 KFWD 301703
RWRTX
NORTH TEXAS HOURLY WEATHER ROUNDUP
NATIONAL WEATHER SERVICE FORT WORTH TX
1200 PM CDT MON MAY 30 2016

NOTE: "FAIR" INDICATES FEW OR NO CLOUDS BELOW 12,000 FEET WITH NO
SIGNIFICANT WEATHER AND/OR OBSTRUCTIONS TO VISIBILITY.

TXZ118-119-301800-
DALLAS/FORT WORTH METROPLEX

CITY           SKY/WX    TMP DP  RH WIND       PRES   REMARKS
DFW AIRPORT    CLOUDY    77  63  61 VRB7      30.01F
DALLAS LOVE    CLOUDY    77  63  61 NW5       30.01F
FTW MEACHAM    CLOUDY    77  63  61 VRB3      30.01F
DAL-EXECUTIVE  CLOUDY    76  64  66 VRB5      30.01F
FTW-ALLIANCE   CLOUDY    76  64  66 VRB3      30.01F
FTW-NAS-JRB    CLOUDY    76  64  66 NW5       30.02F
FTW-SPINKS     MOSUNNY   75  64  69 CALM      30.04F
ARLINGTON      PTSUNNY   78  64  61 CALM      30.02S
GRAND PRAIRIE  SUNNY     75  63  64 CALM      30.03F
ADDISON        MOSUNNY   75  66  73 W5        30.02S
MESQUITE       MOSUNNY   77  64  65 W3        30.01F
LANCASTER      CLOUDY    75  63  64 CALM      30.02S
$$

TXZ091>094-102>105-117-120-121-131>134-301800-
NORTH CENTRAL TEXAS

CITY           SKY/WX    TMP DP  RH WIND       PRES   REMARKS
SHRMAN/DENISON CLOUDY    73  61  64 S5        30.02F
BRIDGEPORT     CLOUDY    75  65  72 CALM      30.04F
DECATUR        CLOUDY    74  64  69 SW7       30.03F
DENTON         CLOUDY    75  66  73 SW6       30.01F
MCKINNEY       CLOUDY    76  66  71 CALM      30.01F
ROCKWALL       CLOUDY    77  67  71 CALM      30.00S
TERRELL        PTSUNNY   79  66  64 S7        30.00F
WAXAHACHIE     PTSUNNY   75  65  71 NW5       30.03S
CLEBURNE       CLOUDY    73  66  78 N6        30.04S
GRANBURY       CLOUDY    75  64  67 W7        30.04F
$$

TXZ083>090-098>101-113>116-127>130-139>142-154-155-301800-
WESTERN NORTH TEXAS

CITY           SKY/WX    TMP DP  RH WIND       PRES   REMARKS
WICHITA FALLS  SUNNY     78  63  59 SW12G17   30.01F
WF-KICKAPOO    SUNNY     78  63  60 W6        30.02F
VERNON         SUNNY     75  58  54 CALM      30.04F
ABILENE        PTSUNNY   74  66  76 W6        30.05F
ABILENE-DYESS  MOSUNNY   75  64  67 VRB3      30.03F
MINERAL WELLS  CLOUDY    75  64  68 VRB7      30.01F
STEPHENVILLE   PTSUNNY   73  62  70 CALM      30.07F
COMANCHE       PTSUNNY   75  66  71 CALM      30.05R
BROWNWOOD      SUNNY     77  66  69 W9        30.03S
COLEMAN        SUNNY     80  66  62 SW5       30.04S
$$

TXZ143>147-156>162-174-175-301800-
CENTRAL TEXAS

CITY           SKY/WX    TMP DP  RH WIND       PRES   REMARKS
WACO           CLOUDY    78  64  61 N9        30.02S
WACO-TSTC      SUNNY     77  68  73 N7        30.02S
WACO-MCGREGOR  CLOUDY    77  64  64 N10       30.03R
HILLSBORO      CLOUDY    76  64  68 N7        30.02S
CORSICANA      CLOUDY    80  71  74 E7        30.00F
MEXIA          CLOUDY    78  70  77 S6        29.98F
HEARNE         CLOUDY    79  65  62 W9        29.99R
CAMERON        CLOUDY    80  65  60 N15G22    29.98F
TEMPLE         PTSUNNY   75  65  70 N13       30.02F
KILLEEN        CLOUDY    76  66  70 N9        30.02S
FORT HOOD      MOSUNNY   75  65  71 VRB7      30.01S
GATESVILLE     MOSUNNY   75  63  64 CALM      30.06R
HAMILTON       SUNNY     74  63  68 W3        30.06R
$$

TXZ095>097-106>112-122>126-135>138-148>153-164>167-301800-
EAST TEXAS

CITY           SKY/WX    TMP DP  RH WIND       PRES   REMARKS
PARIS          CLOUDY    70  61  73 E8        30.03F
SULPHUR SPRNGS CLOUDY    73  69  87 E9        30.04F
MOUNT PLEASANT CLOUDY    75  66  72 E7        30.05F
MINEOLA        CLOUDY    75  70  83 NE3       30.03F
TYLER          MOSUNNY   79  69  71 N6        30.01F
LONGVIEW       CLOUDY    78  71  79 E3        30.02S
MARSHALL       CLOUDY    77  69  76 CALM      30.05S
ATHENS         PTSUNNY   75  72  88 CALM      29.99F
PALESTINE      CLOUDY    80  72  75 SE7       30.00F
JACKSONVILLE   CLOUDY    79  69  71 SE6       30.04F
CENTER         FAIR      82  73  74 SE7       30.02S
NACOGDOCHES    CLOUDY    79  70  73 S7        30.02S
LUFKIN         CLOUDY    81  70  69 SE10      30.01F
$$

SUPPLEMENTAL OBSERVATIONS (CENTRAL)

CITY           SKY/WX    TMP DP  RH WIND       PRES   REMARKS
$$

SUPPLEMENTAL OBSERVATIONS (WEST)

CITY           SKY/WX    TMP DP  RH WIND       PRES   REMARKS
$$

SUPPLEMENTAL OBSERVATIONS (EAST)

CITY           SKY/WX    TMP DP  RH WIND       PRES   REMARKS
$$

SUPPLEMENTAL OBSERVATIONS ARE A COLLECTION OF AUTOMATED INSTRUMENTS
THAT ARE MAINTAINED BY A VARIETY OF FEDERAL AND STATE AGENCIES.
CERTAIN ELEMENTS...SUCH AS HUMIDITY VALUES AND SUSTAINED WIND
SPEEDS...MAY BE APPROXIMATED.





USA.gov is the U.S. government's official web portal to all federal, state and local government web resources and services.